Wind_Speed
14 15 15 15 14 15 17 18 21 24 27 27 28 30 31 34 36 37 35 33 33 35 40 41 43 48 42 42 46 49 52 55 57 58 57 57 58 58 59 61 61 59 58 55
14 13 15 14 14 16 17 19 20 23 26 28 29 31 32 34 36 38 37 36 39 41 42 46 47 40 42 47 50 54 57 60 61 60 62 64 65 66 66 62 60 62 61 60
15 15 14 13 14 16 19 21 24 24 25 28 28 31 32 31 31 33 35 38 41 44 45 41 40 42 47 51 54 58 61 61 64 67 68 69 69 67 64 66 65 60 56 53
16 15 13 13 16 16 19 21 21 22 25 26 25 24 25 26 26 28 32 35 36 37 39 40 42 45 49 53 57 60 63 66 69 71 71 70 66 65 68 63 59 58 58 55
13 13 13 16 17 17 20 20 23 25 22 23 24 23 23 23 23 24 27 30 32 34 38 41 45 49 53 56 59 63 65 69 70 71 70 67 67 68 61 60 61 60 59 57
15 14 16 18 17 17 17 21 23 21 22 23 22 23 22 22 22 24 28 30 33 36 39 42 47 50 54 58 60 63 66 69 69 68 70 69 71 62 59 60 60 60 59 56
13 13 15 18 19 17 16 17 18 20 22 24 23 25 25 25 25 26 28 31 33 37 40 44 48 52 55 58 61 63 65 65 67 69 68 72 65 61 61 62 62 61 59 53
13 10 14 18 20 18 17 18 21 23 24 24 26 27 27 26 27 27 28 30 33 38 41 44 47 50 54 57 60 62 64 66 69 69 71 62 58 60 61 63 61 58 56 49
13 14 16 15 19 20 19 20 21 24 26 26 24 25 26 25 25 26 29 31 35 38 41 43 47 50 55 59 62 64 67 68 69 68 55 54 58 59 58 56 56 55 52 49
14 17 18 17 18 18 20 20 22 23 27 27 23 23 24 25 25 27 30 33 36 39 41 46 51 55 58 61 64 66 68 66 54 49 53 55 57 55 52 52 52 51 50 49
15 18 21 20 18 18 19 21 22 25 26 29 28 23 24 25 26 28 32 35 37 41 45 49 53 56 59 61 64 66 58 49 49 53 53 54 52 50 49 49 48 46 44 43
18 20 21 21 20 18 21 23 24 26 26 28 29 24 25 27 28 30 32 35 39 42 46 51 54 55 57 60 63 53 47 51 52 52 49 47 43 41 42 42 44 44 41 40
18 21 21 21 20 21 22 23 24 27 27 25 30 29 29 30 30 31 33 37 40 44 48 51 53 55 57 60 52 45 49 53 49 46 42 40 40 41 44 44 44 46 42 40
21 23 21 21 20 20 22 24 25 28 30 32 29 33 33 32 32 33 34 37 41 45 48 51 53 55 58 55 47 47 50 48 44 40 37 38 39 45 49 44 44 46 41 37
24 22 22 23 22 21 22 22 26 30 32 36 33 34 33 32 32 32 34 38 42 46 49 50 53 55 57 49 46 48 46 44 42 36 37 38 40 42 44 44 43 43 39 34
25 24 23 22 25 23 23 25 26 28 31 32 31 31 31 31 31 33 35 39 42 45 46 49 52 56 51 44 45 45 45 43 37 34 36 37 41 41 42 40 40 37 34 29
27 27 27 22 25 23 25 26 28 29 30 31 29 28 28 29 31 33 35 39 41 44 46 50 52 53 45 43 43 44 43 41 34 35 35 37 39 40 41 39 36 35 30 26
30 31 30 26 26 24 25 27 28 28 29 30 29 28 29 29 31 33 35 39 41 43 46 50 51 48 43 43 43 45 44 38 32 34 33 35 38 41 40 37 33 32 26 27
33 33 32 30 27 24 25 26 26 25 26 28 26 27 28 29 31 33 35 37 40 41 46 50 51 46 40 40 42 45 43 36 33 34 34 37 36 37 40 37 34 31 23 24
31 33 33 32 30 25 23 25 25 24 23 26 28 29 28 30 31 32 33 36 38 40 44 48 50 43 38 38 41 43 43 36 32 33 32 39 36 39 38 41 32 29 22 15
31 31 32 32 33 26 23 27 26 26 23 24 26 28 28 29 31 32 33 36 36 38 43 46 50 42 35 35 40 41 42 39 34 33 34 38 40 39 37 37 38 32 27 19
35 36 34 35 33 29 26 28 28 27 25 27 26 28 31 32 32 31 32 34 33 37 42 46 49 42 34 33 37 38 39 40 38 35 36 38 41 43 35 38 41 33 30 20
37 36 37 36 32 33 29 30 29 27 26 27 28 29 32 35 33 31 31 32 31 35 41 45 48 42 33 32 34 36 37 38 39 38 36 39 41 46 34 37 34 31 25 9
38 38 39 37 33 34 32 30 29 28 26 26 27 30 32 34 32 29 29 28 29 34 40 43 46 44 35 30 30 34 35 39 38 39 39 40 44 42 35 31 30 26 22 10
40 39 37 37 35 36 30 31 30 29 28 26 26 30 31 34 31 28 27 24 27 32 38 43 45 44 38 30 28 30 33 37 38 39 39 39 44 35 33 30 27 28 21 17
42 38 39 36 35 40 31 31 30 29 29 26 26 29 31 32 29 26 25 22 26 31 38 43 43 43 42 32 28 28 31 33 36 36 36 36 39 34 32 31 28 28 23 21
Wind_Direction
278 285 296 300 292 291 291 287 280 276 273 281 287 294 299 299 300 302 303 301 302 302 306 311 316 317 310 307 309 310 310 308 305 303 303 306 309 309 309 308 306 302 297 291
277 285 287 292 288 285 288 286 285 286 289 290 294 298 297 298 297 298 299 297 298 303 308 313 311 309 306 305 309 311 309 307 307 310 313 314 315 315 313 309 304 302 300 297
275 281 286 290 281 290 296 296 299 297 295 295 296 295 299 299 300 298 298 299 301 303 305 305 306 305 308 311 311 310 308 310 313 315 316 317 315 311 309 307 306 304 300 297
283 290 296 293 290 296 293 300 299 303 308 305 301 304 305 302 300 299 299 298 299 302 302 305 306 310 311 312 309 307 312 315 314 317 316 313 311 311 311 310 308 305 302 298
276 283 285 291 296 299 301 303 303 307 304 307 310 311 307 302 300 297 297 300 299 299 305 311 313 312 312 308 310 315 313 314 314 313 313 313 314 315 313 311 310 308 304 299
281 290 298 302 304 307 300 294 298 306 314 313 313 310 308 306 302 300 298 298 300 306 310 310 311 310 311 312 311 312 313 312 313 313 314 315 317 313 311 309 308 306 304 300
283 293 299 302 304 309 306 308 310 312 312 315 317 312 312 307 302 301 300 302 305 308 309 309 312 311 310 310 311 311 311 313 313 313 314 316 314 313 313 310 308 306 303 301
284 298 303 301 306 309 308 314 319 320 318 317 316 313 309 304 302 300 301 305 307 310 310 308 309 310 309 308 311 315 316 314 314 315 313 313 312 312 311 310 309 307 303 297
260 269 286 296 298 304 311 317 320 319 318 317 315 315 312 309 305 305 309 312 309 306 308 311 309 308 314 319 321 319 316 315 314 314 315 314 313 311 310 309 308 305 301 297
279 290 301 307 302 305 309 315 321 324 324 320 319 320 311 309 307 308 307 304 308 312 313 315 317 320 324 324 320 317 318 319 320 318 317 315 315 315 313 313 311 308 302 295
292 302 307 306 304 306 307 314 316 320 324 323 322 324 317 309 308 307 310 314 315 318 319 318 322 327 325 321 319 322 323 325 322 320 319 320 320 320 320 321 318 313 309 303
296 297 298 300 302 303 306 313 316 317 322 324 322 328 316 313 310 311 313 317 320 319 319 324 327 325 323 323 324 323 324 325 324 323 323 324 326 330 328 330 334 326 318 311
286 281 287 291 295 301 307 312 314 318 321 322 322 323 321 315 314 315 319 320 319 319 324 327 327 325 324 326 326 325 325 325 326 326 329 331 332 331 332 331 330 332 327 321
276 279 288 292 292 297 303 307 312 320 323 323 325 318 318 318 316 317 319 318 320 323 328 329 327 326 328 329 327 326 326 326 330 329 333 332 333 332 333 331 333 332 331 327
276 284 288 290 291 294 296 299 310 317 321 323 321 316 316 316 319 320 319 320 324 328 330 328 329 332 331 329 329 330 333 334 332 331 335 336 336 336 334 338 331 326 337 336
277 283 285 287 287 292 293 298 307 312 319 322 321 317 317 323 322 322 321 324 326 331 328 332 335 336 331 331 334 337 337 337 333 336 338 341 338 338 344 337 339 346 346 345
272 276 280 282 282 289 292 297 304 311 321 322 318 316 323 325 324 321 322 324 330 329 333 337 338 336 334 338 340 339 340 339 338 342 341 343 343 340 344 349 350 344 351 353
267 271 275 278 278 283 288 293 300 312 320 320 318 322 325 326 322 319 323 329 330 332 337 337 340 339 339 343 344 344 344 341 343 344 338 341 343 341 345 350 354 348 351 2
268 271 272 275 277 283 287 292 298 304 314 315 320 326 327 322 320 319 325 330 332 335 338 339 343 341 340 344 346 349 348 344 346 348 346 345 343 348 345 346 354 350 347 355
261 265 270 275 278 281 288 290 295 296 305 311 318 322 325 322 319 320 328 331 334 337 340 343 346 340 339 344 347 351 351 347 347 350 347 351 348 352 356 353 348 348 339 334
262 263 266 270 274 279 285 288 290 292 298 305 314 320 321 320 322 326 330 334 333 339 343 345 345 341 338 341 345 348 351 349 346 346 348 346 345 347 346 356 354 347 333 306
265 265 267 269 274 277 278 281 284 291 294 298 308 318 321 321 324 328 331 334 333 342 348 347 346 341 337 337 341 347 351 352 350 349 350 348 350 345 350 348 343 337 337 323
269 268 269 270 276 280 278 277 284 287 292 296 305 315 321 320 322 327 331 331 334 345 351 351 347 342 336 338 339 343 350 350 352 352 352 353 353 348 354 341 343 345 352 11
265 268 269 271 275 276 280 281 284 286 291 294 301 308 317 317 321 325 328 328 336 347 352 350 349 345 336 337 339 342 345 347 352 352 355 357 353 359 357 356 360 15 29 42
263 264 268 268 272 274 275 278 281 287 292 293 297 302 313 315 319 323 327 327 339 348 353 353 352 346 338 333 339 343 344 346 351 354 357 0 357 10 13 11 23 24 32 25
260 266 266 269 269 272 274 274 278 283 286 293 293 300 310 315 316 321 325 326 339 348 350 349 351 347 343 335 337 341 343 344 351 355 357 2 3 15 18 20 26 28 33 51
Height
5902 5903 5902 5902 5900 5899 5898 5897 5895 5894 5892 5890 5888 5885 5884 5883 5882 5881 5879 5878 5876 5874 5872 5868 5866 5863 5857 5853 5848 5843 5838 5832 5826 5821 5815 5810 5804 5798 5792 5786 5780 5775 5771 5768
5901 5900 5899 5898 5897 5896 5895 5894 5893 5891 5887 5885 5883 5881 5879 5877 5876 5875 5873 5872 5870 5868 5866 5864 5860 5855 5851 5845 5840 5833 5826 5820 5812 5806 5800 5794 5787 5781 5775 5770 5764 5757 5751 5745
5897 5897 5896 5895 5894 5893 5892 5889 5888 5886 5884 5880 5878 5875 5874 5872 5871 5870 5868 5866 5864 5862 5861 5857 5854 5849 5844 5837 5829 5821 5814 5808 5799 5792 5785 5778 5772 5765 5758 5750 5745 5739 5733 5729
5895 5894 5893 5892 5891 5891 5888 5886 5883 5881 5879 5877 5874 5873 5869 5867 5866 5865 5864 5862 5860 5857 5853 5850 5847 5842 5835 5827 5819 5811 5802 5793 5785 5777 5772 5765 5757 5749 5741 5733 5727 5721 5715 5712
5893 5891 5890 5889 5888 5886 5885 5882 5879 5878 5875 5873 5870 5869 5867 5865 5863 5861 5859 5857 5855 5851 5848 5843 5837 5830 5823 5816 5807 5798 5790 5781 5773 5766 5757 5748 5741 5733 5725 5717 5710 5704 5698 5693
5889 5888 5887 5886 5885 5884 5882 5879 5877 5875 5871 5869 5867 5865 5864 5861 5860 5858 5855 5853 5849 5846 5841 5835 5829 5822 5814 5806 5798 5789 5781 5772 5764 5753 5743 5733 5726 5718 5711 5704 5697 5691 5684 5677
5886 5885 5884 5883 5881 5880 5878 5876 5874 5872 5869 5866 5863 5861 5858 5856 5854 5853 5850 5847 5844 5839 5834 5828 5820 5813 5805 5797 5789 5782 5774 5763 5753 5742 5732 5721 5711 5703 5696 5688 5681 5675 5670 5663
5883 5883 5881 5879 5877 5876 5874 5873 5870 5867 5865 5863 5859 5856 5854 5852 5849 5847 5845 5842 5838 5832 5826 5820 5813 5806 5798 5791 5783 5773 5762 5750 5739 5729 5719 5708 5699 5690 5682 5673 5665 5658 5652 5648
5881 5880 5879 5877 5874 5873 5870 5869 5867 5864 5861 5858 5856 5853 5850 5846 5844 5841 5839 5835 5830 5826 5821 5814 5807 5800 5790 5781 5770 5759 5748 5738 5726 5714 5705 5697 5688 5679 5671 5661 5652 5644 5637 5633
5877 5876 5875 5873 5872 5870 5867 5866 5864 5861 5856 5853 5852 5849 5845 5842 5840 5837 5834 5830 5825 5820 5814 5806 5797 5789 5780 5769 5758 5746 5734 5723 5712 5703 5695 5686 5677 5667 5658 5649 5640 5630 5623 5617
5873 5871 5871 5868 5868 5866 5864 5862 5860 5857 5853 5848 5845 5846 5841 5837 5834 5831 5827 5823 5818 5811 5805 5797 5789 5780 5770 5759 5746 5734 5722 5713 5704 5695 5685 5675 5666 5657 5647 5638 5628 5618 5609 5602
5868 5866 5865 5864 5863 5862 5859 5857 5855 5852 5851 5845 5841 5842 5836 5832 5829 5825 5822 5817 5811 5805 5797 5790 5782 5772 5761 5749 5736 5725 5715 5706 5696 5686 5676 5666 5657 5648 5639 5629 5618 5607 5598 5589
5865 5862 5862 5861 5861 5858 5855 5853 5850 5847 5844 5843 5837 5834 5830 5826 5823 5819 5814 5810 5804 5797 5791 5783 5773 5763 5751 5740 5727 5718 5708 5698 5689 5678 5669 5659 5649 5640 5631 5619 5610 5600 5589 5580
5860 5858 5858 5857 5856 5855 5852 5848 5845 5842 5839 5835 5833 5827 5823 5820 5817 5813 5809 5803 5797 5790 5783 5774 5765 5754 5742 5729 5719 5711 5702 5691 5681 5672 5663 5654 5645 5635 5624 5613 5602 5592 5581 5572
5854 5854 5853 5851 5851 5850 5848 5845 5841 5838 5834 5829 5827 5821 5819 5815 5811 5807 5802 5796 5790 5784 5776 5767 5757 5745 5732 5721 5713 5704 5693 5683 5674 5666 5658 5650 5641 5631 5619 5607 5598 5588 5577 5567
5848 5848 5847 5847 5845 5845 5843 5841 5838 5835 5831 5826 5821 5817 5813 5810 5806 5801 5796 5790 5785 5778 5770 5760 5749 5736 5724 5716 5707 5696 5687 5678 5669 5661 5654 5646 5637 5627 5616 5604 5594 5585 5574 5565
5842 5841 5841 5843 5841 5840 5837 5835 5832 5830 5825 5820 5816 5813 5808 5805 5801 5796 5791 5786 5780 5772 5763 5753 5742 5730 5719 5710 5701 5692 5682 5673 5664 5657 5650 5642 5632 5624 5613 5602 5591 5582 5574 5566
5836 5835 5835 5837 5835 5836 5833 5829 5827 5824 5819 5815 5812 5807 5804 5800 5796 5791 5786 5781 5774 5766 5756 5747 5737 5724 5714 5705 5697 5688 5679 5670 5662 5655 5647 5639 5630 5621 5612 5601 5590 5582 5575 5568
5829 5828 5828 5829 5829 5830 5827 5823 5821 5819 5816 5811 5808 5804 5800 5795 5792 5786 5781 5776 5768 5760 5752 5742 5731 5719 5711 5703 5695 5685 5677 5668 5660 5652 5645 5636 5628 5619 5609 5599 5589 5581 5575 5569
5820 5820 5821 5821 5820 5822 5821 5817 5815 5814 5812 5807 5803 5800 5796 5791 5787 5782 5778 5771 5764 5756 5748 5737 5726 5717 5709 5701 5693 5685 5676 5667 5660 5651 5644 5636 5626 5617 5607 5598 5588 5580 5572 5567
5812 5813 5812 5812 5811 5815 5814 5811 5809 5808 5809 5802 5799 5796 5792 5786 5782 5778 5773 5767 5760 5753 5744 5733 5723 5715 5707 5699 5692 5684 5676 5667 5659 5650 5642 5634 5624 5615 5606 5596 5586 5577 5569 5563
5805 5804 5806 5805 5804 5806 5807 5805 5804 5802 5799 5796 5793 5790 5786 5780 5776 5773 5768 5762 5756 5749 5740 5729 5720 5711 5704 5697 5691 5684 5676 5667 5658 5649 5640 5631 5622 5612 5603 5594 5584 5573 5565 5558
5797 5796 5796 5798 5799 5797 5798 5797 5796 5795 5793 5790 5787 5783 5779 5774 5771 5768 5764 5758 5753 5745 5736 5727 5718 5709 5702 5695 5689 5682 5675 5667 5658 5649 5640 5631 5621 5610 5600 5592 5581 5570 5562 5557
5787 5786 5786 5787 5791 5789 5789 5790 5788 5788 5786 5784 5781 5777 5774 5770 5767 5764 5759 5754 5748 5741 5733 5725 5716 5707 5699 5693 5686 5681 5674 5666 5658 5650 5640 5630 5621 5610 5600 5591 5581 5573 5566 5561
5777 5778 5779 5779 5780 5780 5782 5781 5780 5780 5779 5777 5775 5771 5768 5765 5762 5759 5755 5750 5744 5738 5730 5723 5715 5706 5697 5691 5684 5679 5673 5665 5658 5650 5641 5631 5622 5612 5602 5593 5585 5579 5574 5569
5767 5770 5769 5770 5772 5769 5774 5773 5773 5773 5771 5771 5768 5765 5762 5759 5757 5754 5750 5745 5740 5734 5727 5721 5714 5705 5696 5688 5682 5677 5671 5665 5659 5651 5642 5634 5626 5617 5607 5599 5592 5585 5580 5575